CW4198 Nisa PT current weather conditions

sailwx.info

Wind from 049 at 2 knots gusting 4

Air temperature 13.3° C
Dewpoint 12.1° C

Last reported at 2018-Apr-23 07:05 UTC.
Time now 2018-Apr-23 07:52 UTC

Location: N 39°31' W 007°39'.
View on Google Maps.

See reports from other nearby stations

  
Tides and Currents Weather Stations Pressure Air Temp Water Temp Dewpoint Dewpoint Depression Visibility Wind Speed Wind Dir Waves Ship Positions
date/time (UTC)wind fromknots sea level pressurealtimeterstation pressurevisibilityair tempwater tempwave heightnotes
2018-Apr-23 07:05 049 2 gusting 4 13.3
2018-Apr-23 06:35 065 4 gusting 5 13.3
2018-Apr-23 06:15 045 2 gusting 4 13.3
2018-Apr-23 05:55 065 2 gusting 4 13.3
2018-Apr-23 05:45 053 2 gusting 3 13.3
2018-Apr-23 05:34 074 2 gusting 4 13.3
2018-Apr-23 05:24 075 4 gusting 4 13.3
2018-Apr-23 05:14 060 2 gusting 4 13.3
2018-Apr-23 05:04 062 4 gusting 4 13.3
2018-Apr-23 03:34 087 14.4
2018-Apr-23 03:24 097 2 gusting 4 14.4
2018-Apr-23 03:14 100 15.0
2018-Apr-23 03:04 089 15.0
2018-Apr-23 02:54 080 2 gusting 2 14.4
2018-Apr-23 02:34 100 2 gusting 2 14.4
2018-Apr-23 02:24 073 2 gusting 3 14.4
2018-Apr-23 02:14 102 14.4
2018-Apr-23 02:04 078 14.4
2018-Apr-23 01:44 048 13.9
2018-Apr-23 01:34 048 13.9
2018-Apr-23 01:14 048 14.4
2018-Apr-23 00:54 048 14.4
2018-Apr-23 00:44 048 14.4
2018-Apr-23 00:24 024 14.4
2018-Apr-23 00:14 024 14.4
2018-Apr-23 00:04 026 15.0
2018-Apr-22 23:54 027 15.0
2018-Apr-22 23:44 003 15.0
2018-Apr-22 23:34 15.0
2018-Apr-22 23:24 019 15.6
2018-Apr-22 22:15 058 16.7
2018-Apr-22 22:05 058 16.7
2018-Apr-22 21:45 054 16.7
2018-Apr-22 21:35 054 16.7
2018-Apr-22 21:15 055 17.2
2018-Apr-22 20:55 058 17.2
2018-Apr-22 20:45 058 17.8
2018-Apr-22 20:35 058 17.8
2018-Apr-22 20:15 056 17.8
2018-Apr-22 19:55 056 18.3
2018-Apr-22 19:45 086 18.3
2018-Apr-22 19:35 049 18.9
2018-Apr-22 19:15 066 19.4
2018-Apr-22 19:05 076 19.4
2018-Apr-22 18:45 077 4 gusting 4 20.0
2018-Apr-22 18:35 058 1 gusting 4 20.6
2018-Apr-22 18:25 068 2 gusting 4 20.6
2018-Apr-22 18:05 059 4 gusting 4 21.1
2018-Apr-22 17:25 036 4 gusting 6 21.7
2018-Apr-22 17:15 118 7 gusting 7 21.7
2018-Apr-22 16:55 046 4 gusting 6 21.7
2018-Apr-22 16:45 079 4 gusting 4 21.1
2018-Apr-22 16:24 031 4 gusting 6 21.1
2018-Apr-22 16:04 069 21.1
2018-Apr-22 15:44 070 4 gusting 6 20.6
2018-Apr-22 15:34 071 6 gusting 8 20.0
2018-Apr-22 15:04 059 4 gusting 6 20.0
2018-Apr-22 14:54 044 20.0
2018-Apr-22 14:44 063 6 gusting 6 20.0
2018-Apr-22 14:34 037 6 gusting 6 19.4
2018-Apr-22 14:14 043 4 gusting 6 19.4
2018-Apr-22 14:04 057 4 gusting 6 18.9
2018-Apr-22 13:54 051 2 gusting 4 19.4
2018-Apr-22 13:44 064 4 gusting 6 18.9
2018-Apr-22 13:34 353 2 gusting 4 18.3
2018-Apr-22 13:14 022 3 gusting 4 17.2
2018-Apr-22 13:04 051 2 gusting 3 16.7
2018-Apr-22 12:44 060 2 gusting 4 17.8
2018-Apr-22 12:34 104 4 gusting 4 18.3
2018-Apr-22 12:24 098 4 gusting 4 17.8
2018-Apr-22 12:14 050 4 gusting 6 17.8
2018-Apr-22 12:04 056 3 gusting 4 17.8
2018-Apr-22 11:54 061 17.8
2018-Apr-22 11:44 068 4 gusting 5 17.2
2018-Apr-22 11:34 069 2 gusting 4 17.8
2018-Apr-22 11:04 063 2 gusting 6 16.7
2018-Apr-22 10:54 052 4 gusting 4 16.7
2018-Apr-22 10:15 063 3 gusting 6 15.6
2018-Apr-22 10:05 038 2 gusting 4 15.0
2018-Apr-22 09:45 038 2 gusting 2 14.4
2018-Apr-22 09:15 049 2 gusting 4 15.0
2018-Apr-22 09:05 057 1 gusting 4 15.0
2018-Apr-22 08:45 065 4 gusting 4 15.0
2018-Apr-22 08:25 065 2 gusting 4 13.9
2018-Apr-22 07:55 047 2 gusting 6 13.3
2018-Apr-22 07:45 070 4 gusting 4 13.3
2018-Apr-22 07:35 057 4 gusting 4 12.8
2018-Apr-22 07:25 059 12.8
2018-Apr-22 07:15 090 1 gusting 4 12.8
2018-Apr-22 06:55 108 5 gusting 5 12.8
2018-Apr-22 06:35 090 2 gusting 4 12.8
2018-Apr-22 06:15 071 4 gusting 5 12.8
2018-Apr-22 06:05 075 12.8
2018-Apr-22 05:55 074 12.8
2018-Apr-22 05:35 050 12.2
2018-Apr-22 04:55 038 12.8
2018-Apr-22 04:45 049 2 gusting 4 12.8
2018-Apr-22 04:25 055 2 gusting 2 12.8
2018-Apr-22 04:15 056 2 gusting 3 12.8
2018-Apr-22 03:25 078 2 gusting 4 13.3
2018-Apr-22 03:15 065 2 gusting 4 13.3
2018-Apr-22 03:05 090 3 gusting 4 13.3
2018-Apr-22 02:45 065 2 gusting 4 13.3
2018-Apr-22 02:35 059 2 gusting 4 13.9
2018-Apr-22 02:15 096 2 gusting 6 13.9
2018-Apr-22 01:05 077 2 gusting 4 13.9
2018-Apr-22 00:55 071 2 gusting 4 13.3
2018-Apr-22 00:25 074 3 gusting 4 13.9
2018-Apr-21 23:55 061 13.9
2018-Apr-21 23:45 076 2 gusting 3 13.9
2018-Apr-21 23:35 065 2 gusting 2 13.9
2018-Apr-21 22:55 038 2 gusting 4 14.4
2018-Apr-21 22:25 049 14.4
2018-Apr-21 22:05 057 14.4
2018-Apr-21 21:35 030 14.4
2018-Apr-21 21:25 032 14.4
2018-Apr-21 21:15 032 14.4
2018-Apr-21 21:05 025 14.4
2018-Apr-21 20:55 073 14.4
2018-Apr-21 20:35 074 4 gusting 4 15.0
2018-Apr-21 20:25 049 15.0
2018-Apr-21 20:15 063 2 gusting 3 15.0
2018-Apr-21 20:04 073 2 gusting 2 15.0
2018-Apr-21 19:54 081 2 gusting 4 15.0
2018-Apr-21 19:34 075 2 gusting 4 15.6
2018-Apr-21 19:24 081 1 gusting 4 15.6
2018-Apr-21 18:54 069 2 gusting 3 16.1
2018-Apr-21 18:24 113 16.7
2018-Apr-21 18:04 081 2 gusting 6 16.7
2018-Apr-21 17:54 113 2 gusting 4 16.7
2018-Apr-21 17:34 077 2 gusting 4 17.2
2018-Apr-21 17:14 074 6 gusting 7 17.2
2018-Apr-21 17:04 112 2 gusting 8 16.7
2018-Apr-21 16:54 070 9 gusting 9 16.7
2018-Apr-21 16:44 071 6 gusting 8 16.7
2018-Apr-21 16:34 060 6 gusting 7 16.7
2018-Apr-21 16:04 101 6 gusting 9 16.1
2018-Apr-21 15:44 044 9 gusting 11 15.6
2018-Apr-21 15:34 082 6 gusting 7 15.6
2018-Apr-21 15:24 087 6 gusting 6 15.6
2018-Apr-21 14:44 085 6 gusting 6 15.6
2018-Apr-21 14:24 108 6 gusting 7 15.6
2018-Apr-21 14:04 060 6 gusting 9 14.4
2018-Apr-21 13:44 065 5 gusting 10 14.4
2018-Apr-21 13:14 110 4 gusting 7 14.4
2018-Apr-21 13:04 087 6 gusting 7 14.4
2018-Apr-21 12:44 110 6 gusting 8 14.4
2018-Apr-21 12:24 117 6 gusting 6 14.4
2018-Apr-21 11:44 186 7 gusting 11 14.4
2018-Apr-21 11:14 253 4 gusting 5 14.4
2018-Apr-21 11:04 239 2 gusting 4 14.4
2018-Apr-21 10:54 305 14.4
2018-Apr-21 10:44 215 6 gusting 6 14.4
2018-Apr-21 10:34 219 4 gusting 6 14.4
2018-Apr-21 10:14 214 2 gusting 5 14.4
2018-Apr-21 10:04 202 2 gusting 6 14.4
2018-Apr-21 09:54 083 8 gusting 8 14.4
2018-Apr-21 09:34 100 7 gusting 11 14.4
2018-Apr-21 09:24 088 8 gusting 9 13.9
2018-Apr-21 08:34 089 9 gusting 9 13.9
2018-Apr-21 08:14 073 6 gusting 8 13.9
2018-Apr-21 08:04 061 6 gusting 8 13.3
2018-Apr-21 07:54 056 4 gusting 9 13.3
2018-Apr-21 07:44 084 6 gusting 6 13.3
2018-Apr-21 07:04 012 4 gusting 7 13.3